Weather in Steenbergen

Netherlands     51°35′09″N   4°18′52″E
temp.,
°C
wind,
m/s
gust,
m/s
humid.,
%
clouds,
%
prec.,
mm/h
press.,
hPa
HPBL,
m
20 january, wed
wed2001:00+6ssw111785100 0.1 1003670
04:00+7ssw111885100 0.5 1000695
07:00+7ssw111880100 0.7 999624
10:00+7ssw111879100 0.0 998607
13:00+7ssw101778100 0.4 997503
16:00+8ssw101967100 0.0 993607
19:00+8ssw102065100 0.0 993676
22:00+9ssw122175100 0.0 990772
21 january, thu
thu2101:00+9s12247583 0.0 985972
04:00+9sw162489100 2.9 9821032
07:00+6wsw11196883 3.4 9891125
10:00+6ssw1118770 0.0 991912
13:00+7sw12187433 0.0 9911079
16:00+7ssw101674100 0.1 990868
19:00+7ssw101577100 0.1 988697
22:00+6s2894100 4.4 984379
22 january, fri
fri2201:00+4nw91290100 12.6 985732
04:00+5wsw81383100 0.6 988518
07:00+4sw7108257 0.6 991389
10:00+4sw7108024 0.0 993484
13:00+5sw578334 0.0 993432
16:00+5sw2385100 0.0 992232
19:00+5ne0190100 0.4 99322
22:00+4n2288100 0.1 99439
23 january, sat
sat2301:00+4nw1180100 0.1 99544
04:00+3wnw238099 0.0 99580
07:00+3wsw128076 0.0 99679
10:00+3wsw227837 0.0 996111
13:00+4ssw117368 0.0 997188
16:00+4wsw2277100 0.1 997173
19:00+3nnw3489100 0.3 998196
22:00+2ne3496100 0.4 998205
24 january, sun
sun2401:00+2wnw2386100 0.4 998136
04:00+2nnw4687100 0.3 998283
07:00+2w2377100 0.3 998103
10:00+3wsw457311 0.0 999242
13:00+3ssw46686 0.0 998532
16:00+4s466652 0.0 998662
19:00+2se368276 0.0 999398
22:00+2sse349267 0.1 1000278